Date String (YYYY-MM-DD hh:mm:ss) UTC,Instrument flags,absolute air pressure of the measurement (hPa),sample flow rate (lpm),inlet stack bypass flow (lpm),air temperature of the measurement (°C),ambient temperature measured by the external sensor (°C),aerosol sample conditioner tube jacket temperature (°C),OPC LED temperature (°C),internal box temperature (°C),relative humidity of the measurement (%),span deviation,mass concentration of particles derived from Lorenz-Mie calculation of OPC scattering (μg/m³),mass concentration of particles derived from Lorenz-Mie calculation of OPC scattering (μg/m³),mass concentration of particles derived from Lorenz-Mie calculation of OPC scattering (μg/m³)
DateTimeUTC,F1_M11,P_M11,Q1_M11,Q2_M11,T1_M11,T2_M11,T3_M11,T4_M11,T5_M11,U1_M11,ZSPAN_M11,X2_M11,X0_M11,X1_M11
2023-10-17 17:00:00,SystemResetWarning,0830.0,4.99,000.00,028.9,025.8,000.0,037.2,030.6,15.8,0000.0,0003.25,0011.28,0001.78
2023-10-17 17:01:00,SystemResetWarning,0830.0,5.02,000.00,028.8,024.8,000.0,037.2,030.4,15.8,0000.0,0003.23,0010.61,0001.75
2023-10-17 17:02:00,SystemResetWarning,0830.0,5.00,000.00,028.7,025.0,000.0,037.1,030.3,15.7,0000.0,0003.18,0009.73,0001.73
2023-10-17 17:03:00,SystemResetWarning,0829.9,5.00,000.00,028.7,025.4,000.0,037.1,030.2,15.3,0000.0,0003.14,0009.02,0001.72
2023-10-17 17:04:00,SystemResetWarning,0830.0,5.00,000.00,028.6,025.8,000.0,037.2,030.2,15.2,0000.0,0003.13,0008.64,0001.69
2023-10-17 17:05:00,SystemResetWarning,0830.0,5.00,000.00,028.6,026.1,000.0,037.2,030.3,15.2,0000.0,0002.98,0007.71,0001.67
2023-10-17 17:06:00,SystemResetWarning,0830.0,5.00,000.00,028.6,026.5,000.0,037.2,030.3,15.4,0000.0,0002.74,0006.87,0001.65
2023-10-17 17:07:00,SystemResetWarning,0830.0,5.00,000.00,028.6,026.7,000.0,037.2,030.4,15.7,0000.0,0002.49,0007.12,0001.62
2023-10-17 17:08:00,SystemResetWarning,0830.0,5.00,000.00,028.7,027.0,000.0,037.2,030.4,15.9,0000.0,0002.44,0007.47,0001.61
2023-10-17 17:09:00,SystemResetWarning,0830.0,5.00,000.00,028.7,027.2,000.0,037.2,030.5,15.6,0000.0,0002.44,0007.45,0001.61
2023-10-17 17:10:00,SystemResetWarning,0830.0,5.00,000.00,028.7,027.4,000.0,037.2,030.6,15.7,0000.0,0002.46,0008.03,0001.64
2023-10-17 17:11:00,SystemResetWarning,0830.0,5.00,000.00,028.8,027.5,000.0,037.2,030.6,16.5,0000.0,0002.52,0009.12,0001.65
2023-10-17 17:12:00,SystemResetWarning,0830.0,4.99,000.00,028.8,027.6,000.0,037.2,030.7,15.8,0000.0,0002.50,0009.34,0001.67
2023-10-17 17:13:00,SystemResetWarning,0829.9,5.00,000.00,028.8,026.3,000.0,037.2,030.6,15.4,0000.0,0002.47,0009.09,0001.67
2023-10-17 17:14:00,SystemResetWarning,0829.9,5.01,000.00,028.7,024.9,000.0,037.1,030.4,15.6,0000.0,0002.45,0009.00,0001.66
2023-10-17 17:15:00,SystemResetWarning,0829.9,5.02,000.00,028.7,024.8,000.0,037.1,030.3,15.9,0000.0,0002.46,0008.97,0001.66
2023-10-17 17:16:00,SystemResetWarning,0829.8,5.00,000.00,028.6,025.1,000.0,037.1,030.1,15.8,0000.0,0002.48,0009.21,0001.66
2023-10-17 17:17:00,SystemResetWarning,0829.8,5.01,000.00,028.6,025.5,000.0,037.1,030.1,15.7,0000.0,0002.50,0009.71,0001.64
2023-10-17 17:18:00,SystemResetWarning,0829.8,4.99,000.00,028.5,025.9,000.0,037.1,030.2,15.8,0000.0,0002.49,0009.92,0001.62
2023-10-17 17:19:00,SystemResetWarning,0829.8,5.00,000.00,028.6,026.3,000.0,037.1,030.2,15.8,0000.0,0002.49,0009.81,0001.62
2023-10-17 17:20:00,SystemResetWarning,0829.8,5.00,000.00,028.6,026.6,000.0,037.1,030.3,15.8,0000.0,0002.57,0010.37,0001.62
2023-10-17 17:21:00,SystemResetWarning,0829.8,5.00,000.00,028.6,026.8,000.0,037.1,030.3,15.7,0000.0,0002.58,0010.59,0001.61
2023-10-17 17:22:00,SystemResetWarning,0829.8,5.00,000.00,028.6,027.1,000.0,037.1,030.4,15.8,0000.0,0002.54,0009.59,0001.61
2023-10-17 17:23:00,SystemResetWarning,0829.8,5.00,000.00,028.7,027.3,000.0,037.1,030.5,15.7,0000.0,0002.52,0009.07,0001.60
2023-10-17 17:24:00,SystemResetWarning,0829.8,5.00,000.00,028.7,027.4,000.0,037.1,030.5,15.5,0000.0,0002.55,0009.17,0001.60
2023-10-17 17:25:00,SystemResetWarning,0829.8,5.00,000.00,028.7,027.6,000.0,037.2,030.6,15.8,0000.0,0002.56,0009.46,0001.60
2023-10-17 17:26:00,SystemResetWarning,0829.8,4.99,000.00,028.8,026.9,000.0,037.1,030.6,15.7,0000.0,0002.56,0009.61,0001.60
2023-10-17 17:27:00,SystemResetWarning,0829.8,5.00,000.00,028.7,025.1,000.0,037.1,030.4,15.7,0000.0,0002.53,0010.38,0001.60
2023-10-17 17:28:00,SystemResetWarning,0829.7,5.01,000.00,028.7,024.7,000.0,037.0,030.3,15.6,0000.0,0002.49,0009.96,0001.61
2023-10-17 17:29:00,SystemResetWarning,0829.7,5.01,000.00,028.6,025.0,000.0,037.0,030.1,16.0,0000.0,0002.46,0009.46,0001.62
2023-10-17 17:30:00,SystemResetWarning,0829.7,5.00,000.00,028.5,025.3,000.0,037.0,030.1,16.4,0000.0,0002.45,0009.28,0001.62
2023-10-17 17:31:00,SystemResetWarning,0829.7,5.00,000.00,028.5,025.7,000.0,037.0,030.1,16.5,0000.0,0002.40,0009.59,0001.60
2023-10-17 17:32:00,SystemResetWarning,0829.8,4.99,000.00,028.5,026.1,000.0,037.0,030.2,16.4,0000.0,0002.45,0010.42,0001.59
2023-10-17 17:33:00,SystemResetWarning,0829.8,5.00,000.00,028.5,026.4,000.0,037.0,030.2,16.4,0000.0,0002.44,0011.30,0001.57
2023-10-17 17:34:00,SystemResetWarning,0829.8,5.00,000.00,028.5,026.7,000.0,037.0,030.3,16.4,0000.0,0002.50,0011.55,0001.57
2023-10-17 17:35:00,SystemResetWarning,0829.8,4.99,000.00,028.6,026.9,000.0,037.0,030.4,16.5,0000.0,0002.54,0012.18,0001.57
2023-10-17 17:36:00,SystemResetWarning,0829.8,5.00,000.00,028.6,027.1,000.0,037.1,030.4,16.5,0000.0,0002.58,0012.21,0001.57
2023-10-17 17:37:00,SystemResetWarning,0829.7,5.00,000.00,028.6,027.3,000.0,037.1,030.5,16.5,0000.0,0002.63,0012.12,0001.59
2023-10-17 17:38:00,SystemResetWarning,0829.7,5.00,000.00,028.7,027.5,000.0,037.1,030.5,16.2,0000.0,0002.63,0011.27,0001.60
2023-10-17 17:39:00,SystemResetWarning,0829.7,5.00,000.00,028.7,027.6,000.0,037.1,030.6,16.0,0000.0,0002.72,0011.56,0001.61
2023-10-17 17:40:00,SystemResetWarning,0829.7,4.98,000.00,028.8,026.7,000.0,037.1,030.6,16.0,0000.0,0002.81,0011.93,0001.61
2023-10-17 17:41:00,SystemResetWarning,0829.6,5.01,000.00,028.7,025.0,000.0,037.0,030.3,16.2,0000.0,0002.83,0011.97,0001.61
2023-10-17 17:42:00,SystemResetWarning,0829.6,5.01,000.00,028.6,024.8,000.0,037.0,030.2,16.7,0000.0,0002.80,0011.69,0001.60
2023-10-17 17:43:00,SystemResetWarning,0829.6,5.01,000.00,028.6,025.1,000.0,036.9,030.1,16.6,0000.0,0002.71,0010.58,0001.61
2023-10-17 17:44:00,SystemResetWarning,0829.6,5.00,000.00,028.5,025.5,000.0,037.0,030.1,16.8,0000.0,0002.73,0009.16,0001.65
2023-10-17 17:45:00,SystemResetWarning,0829.6,5.00,000.00,028.5,025.9,000.0,037.0,030.1,16.7,0000.0,0002.71,0009.59,0001.67
2023-10-17 17:46:00,SystemResetWarning,0829.6,5.00,000.00,028.5,026.2,000.0,037.0,030.2,17.0,0000.0,0002.69,0009.40,0001.67
2023-10-17 17:47:00,SystemResetWarning,0829.6,5.00,000.00,028.5,026.6,000.0,037.0,030.3,17.2,0000.0,0002.67,0009.26,0001.67
2023-10-17 17:48:00,SystemResetWarning,0829.5,5.00,000.00,028.6,026.9,000.0,037.0,030.3,16.9,0000.0,0002.66,0009.89,0001.67
2023-10-17 17:49:00,SystemResetWarning,0829.5,5.01,000.00,028.6,027.1,000.0,037.0,030.4,16.7,0000.0,0002.68,0011.87,0001.68
2023-10-17 17:50:00,SystemResetWarning,0829.5,5.00,000.00,028.6,027.3,000.0,037.0,030.5,16.4,0000.0,0002.66,0012.58,0001.68
2023-10-17 17:51:00,SystemResetWarning,0829.5,5.00,000.00,028.7,027.5,000.0,037.1,030.5,16.3,0000.0,0002.67,0013.40,0001.68
2023-10-17 17:52:00,SystemResetWarning,0829.5,4.99,000.00,028.7,027.0,000.0,037.1,030.5,16.0,0000.0,0002.71,0014.88,0001.69
2023-10-17 17:53:00,SystemResetWarning,0829.4,5.00,000.00,028.7,025.2,000.0,037.0,030.3,16.0,0000.0,0002.79,0015.58,0001.72
2023-10-17 17:54:00,SystemResetWarning,0829.4,5.02,000.00,028.6,024.6,000.0,036.9,030.2,16.0,0000.0,0002.85,0015.28,0001.73
2023-10-17 17:55:00,SystemResetWarning,0829.3,5.00,000.00,028.5,024.9,000.0,036.9,030.1,15.7,0000.0,0002.88,0015.70,0001.72
2023-10-17 17:56:00,SystemResetWarning,0829.3,5.00,000.00,028.5,025.3,000.0,036.9,030.0,16.1,0000.0,0002.92,0016.34,0001.71
2023-10-17 17:57:00,SystemResetWarning,0829.3,5.00,000.00,028.5,025.7,000.0,036.9,030.0,16.4,0000.0,0002.89,0016.47,0001.72
2023-10-17 17:58:00,SystemResetWarning,0829.4,5.00,000.00,028.5,026.1,000.0,037.0,030.1,16.4,0000.0,0002.88,0016.35,0001.73
2023-10-17 17:59:00,SystemResetWarning,0829.4,5.00,000.00,028.5,026.5,000.0,037.0,030.2,15.9,0000.0,0002.85,0016.10,0001.71
